GEC8231 KLAX-EDDF

Flight info

Callsign GEC8231
Flight time N/A
Altitude 31000
Route OSHNN1 BEALE J146 DVC DCT PUB DCT HYS J24 MCI DCT KK60K DCT BVT/N0487F330 DCT DJB DCT DORET Q29 JHW Q84 PUPPY DCT EBONY N567B TUDEP/M084F350 DCT 52N050W 54N040W 55N030W 55N020W DCT DOGAL DCT BEXET/N0486F370 DCT DIRUM DCT MORAG DCT NUCHU L607 KONAN DCT KOK UL607 FERDI DCT REMBA DCT SPI T180 NIVNU T847 IMCOM
Aircraft MD11/H-SDE1E2E3FGHIJ2J3J4J5M1RWXY/LB1D1

Departure

Time 2026-05-08 00:45
Airport Los Angeles International Airport (KLAX)

Arrival

Time N/A
Airport Frankfurt Main Airport (EDDF)
Time Latitude Longitude Altitude Speed Heading
2026-05-08 00:12 33.93267 -118.38208 100 ft 0 kts 224°
2026-05-08 00:29 33.93268 -118.38206 100 ft 2 kts 224°
2026-05-08 00:30 33.93287 -118.38184 99 ft 4 kts 224°
2026-05-08 00:30 33.93303 -118.38166 99 ft 4 kts 240°
2026-05-08 00:30 33.93310 -118.38155 99 ft 4 kts 301°
2026-05-08 00:30 33.93297 -118.38143 99 ft 4 kts 342°
2026-05-08 00:31 33.93296 -118.38138 98 ft 4 kts
2026-05-08 00:31 33.93319 -118.38128 100 ft 4 kts 15°
2026-05-08 00:31 33.93339 -118.38127 101 ft 3 kts 360°
2026-05-08 00:31 33.93366 -118.38127 101 ft 4 kts 360°
2026-05-08 00:32 33.93393 -118.38127 100 ft 4 kts 360°
2026-05-08 00:32 33.93420 -118.38127 101 ft 4 kts 360°
2026-05-08 00:32 33.93447 -118.38127 101 ft 4 kts 360°
2026-05-08 00:32 33.93468 -118.38127 101 ft 0 kts 360°
2026-05-08 00:38 33.93476 -118.38127 102 ft 4 kts 360°
2026-05-08 00:38 33.93533 -118.38127 101 ft 12 kts 360°
2026-05-08 00:39 33.93608 -118.38140 103 ft 8 kts 320°
2026-05-08 00:39 33.93620 -118.38196 104 ft 6 kts 269°
2026-05-08 00:39 33.93618 -118.38249 101 ft 6 kts 279°
2026-05-08 00:39 33.93632 -118.38267 102 ft 0 kts 332°
2026-05-08 00:43 33.93644 -118.38271 103 ft 4 kts 346°
2026-05-08 00:43 33.93693 -118.38283 105 ft 9 kts 345°
2026-05-08 00:43 33.93724 -118.38316 106 ft 5 kts 300°
2026-05-08 00:43 33.93729 -118.38360 105 ft 6 kts 266°
2026-05-08 00:44 33.93726 -118.38381 105 ft 0 kts 262°
2026-05-08 00:44 33.93720 -118.38436 104 ft 27 kts 263°
2026-05-08 00:44 33.93666 -118.38967 102 ft 100 kts 263°
2026-05-08 00:44 33.93554 -118.40052 103 ft 159 kts 263°
2026-05-08 00:45 33.93417 -118.41484 318 ft 176 kts 262°
2026-05-08 00:45 33.93276 -118.42979 821 ft 184 kts 262°
2026-05-08 00:45 33.93122 -118.44522 1427 ft 187 kts 263°
2026-05-08 00:45 33.92739 -118.46055 1852 ft 198 kts 239°
2026-05-08 00:46 33.91897 -118.47380 2242 ft 200 kts 234°
2026-05-08 00:46 33.91094 -118.48633 2747 ft 199 kts 234°
2026-05-08 00:46 33.90238 -118.49969 3144 ft 212 kts 234°
2026-05-08 00:46 33.89320 -118.51369 3562 ft 219 kts 233°
2026-05-08 00:47 33.88359 -118.52796 3903 ft 231 kts 234°
2026-05-08 00:47 33.87315 -118.54263 4159 ft 244 kts 226°
2026-05-08 00:47 33.85945 -118.55419 4503 ft 255 kts 208°
2026-05-08 00:47 33.84214 -118.55887 4696 ft 271 kts 182°
2026-05-08 00:48 33.82384 -118.55648 4855 ft 284 kts 173°
2026-05-08 00:48 33.80417 -118.55139 5100 ft 293 kts 170°
2026-05-08 00:48 33.78412 -118.54563 5608 ft 297 kts 169°
2026-05-08 00:48 33.76342 -118.53960 5952 ft 314 kts 169°
2026-05-08 00:49 33.74267 -118.53367 6322 ft 328 kts 167°
2026-05-08 00:49 33.72130 -118.52443 7053 ft 328 kts 155°
2026-05-08 00:49 33.70207 -118.50955 7651 ft 333 kts 138°
2026-05-08 00:49 33.68730 -118.48810 8284 ft 336 kts 118°
2026-05-08 00:50 33.67757 -118.46260 8942 ft 337 kts 109°
2026-05-08 00:50 33.67012 -118.43660 9655 ft 337 kts 107°
2026-05-08 00:50 33.66319 -118.41074 10195 ft 344 kts 105°
2026-05-08 00:50 33.65578 -118.38332 10310 ft 362 kts 107°
2026-05-08 00:51 33.64819 -118.35501 10793 ft 366 kts 102°
2026-05-08 00:51 33.64433 -118.32600 11359 ft 365 kts 93°
2026-05-08 00:51 33.64337 -118.29616 11912 ft 367 kts 89°
2026-05-08 00:51 33.64347 -118.26622 12496 ft 369 kts 88°
2026-05-08 00:52 33.64443 -118.23694 13052 ft 370 kts 83°
2026-05-08 00:52 33.64860 -118.20728 13574 ft 371 kts 73°
2026-05-08 00:52 33.65796 -118.17923 14059 ft 372 kts 60°
2026-05-08 00:52 33.67283 -118.15465 14476 ft 375 kts 46°
2026-05-08 00:53 33.69178 -118.13434 14914 ft 377 kts 38°
2026-05-08 00:53 33.71248 -118.11593 15359 ft 380 kts 36°
2026-05-08 00:53 33.73356 -118.09807 15794 ft 382 kts 36°
2026-05-08 00:53 33.75477 -118.08001 16202 ft 384 kts 36°
2026-05-08 00:54 33.77604 -118.06159 16636 ft 386 kts 36°
2026-05-08 00:54 33.79722 -118.04294 17077 ft 388 kts 37°
2026-05-08 00:54 33.81843 -118.02405 17495 ft 390 kts 37°
2026-05-08 00:54 33.83971 -118.00496 17915 ft 392 kts 37°
2026-05-08 00:55 33.86102 -117.98576 18303 ft 394 kts 37°
2026-05-08 00:55 33.88246 -117.96640 18678 ft 395 kts 37°
2026-05-08 00:55 33.90381 -117.94706 19069 ft 395 kts 37°
2026-05-08 00:55 33.92515 -117.92763 19376 ft 397 kts 37°
2026-05-08 00:56 33.94666 -117.90796 19659 ft 400 kts 37°
2026-05-08 00:56 33.96829 -117.88811 20016 ft 401 kts 37°
2026-05-08 00:56 33.98899 -117.86909 20345 ft 402 kts 37°
2026-05-08 00:56 34.01080 -117.84904 20593 ft 405 kts 37°
2026-05-08 00:57 34.03267 -117.82892 20908 ft 408 kts 37°
2026-05-08 00:57 34.05423 -117.80907 21257 ft 408 kts 37°
2026-05-08 00:57 34.07637 -117.78866 21554 ft 410 kts 37°
2026-05-08 00:57 34.09734 -117.76650 21840 ft 413 kts 45°
2026-05-08 00:58 34.11574 -117.74203 22156 ft 416 kts 49°
2026-05-08 00:58 34.13368 -117.71558 22480 ft 417 kts 50°
2026-05-08 00:58 34.15173 -117.68798 22754 ft 420 kts 50°
2026-05-08 00:58 34.16983 -117.66023 23081 ft 423 kts 51°
2026-05-08 00:59 34.18812 -117.63239 23429 ft 424 kts 50°
2026-05-08 00:59 34.20641 -117.60477 23663 ft 427 kts 50°
2026-05-08 00:59 34.22533 -117.57635 23911 ft 430 kts 50°
2026-05-08 00:59 34.24410 -117.54824 24236 ft 431 kts 50°
2026-05-08 01:00 34.26273 -117.52036 24568 ft 432 kts 50°
2026-05-08 01:00 34.28125 -117.49266 24843 ft 434 kts 50°
2026-05-08 01:00 34.29977 -117.46492 25161 ft 436 kts 50°
2026-05-08 01:00 34.31794 -117.43772 25441 ft 437 kts 50°
2026-05-08 01:01 34.33574 -117.41109 25724 ft 439 kts 50°
2026-05-08 01:01 34.35406 -117.38367 25995 ft 441 kts 50°
2026-05-08 01:01 34.37291 -117.35544 26282 ft 443 kts 50°
2026-05-08 01:01 34.39231 -117.32638 26577 ft 445 kts 50°
2026-05-08 01:02 34.41179 -117.29720 26851 ft 447 kts 50°
2026-05-08 01:02 34.43135 -117.26787 27145 ft 448 kts 50°
2026-05-08 01:02 34.45100 -117.23839 27407 ft 450 kts 50°
2026-05-08 01:02 34.47069 -117.20882 27748 ft 452 kts 50°
2026-05-08 01:03 34.49047 -117.17910 27958 ft 454 kts 50°
2026-05-08 01:03 34.50359 -117.15937 28183 ft 454 kts 50°
2026-05-08 01:03 34.52344 -117.12950 28471 ft 455 kts 50°
2026-05-08 01:03 34.54344 -117.09955 28745 ft 457 kts 50°
2026-05-08 01:04 34.56366 -117.06974 28998 ft 458 kts 49°
2026-05-08 01:04 34.58408 -117.03992 29252 ft 460 kts 49°
2026-05-08 01:04 34.60462 -117.01004 29511 ft 462 kts 49°
2026-05-08 01:04 34.62528 -116.98000 29733 ft 464 kts 49°
2026-05-08 01:05 34.64597 -116.94989 29949 ft 466 kts 49°
2026-05-08 01:05 34.66676 -116.91960 30146 ft 467 kts 49°
2026-05-08 01:05 34.68758 -116.88923 30335 ft 468 kts 49°
2026-05-08 01:05 34.70843 -116.85876 30541 ft 469 kts 49°
2026-05-08 01:06 34.72926 -116.82830 30773 ft 468 kts 49°
2026-05-08 01:06 34.75013 -116.79775 30896 ft 470 kts 49°
2026-05-08 01:06 34.77102 -116.76714 30921 ft 471 kts 49°
2026-05-08 01:07 34.81296 -116.70561 30933 ft 474 kts 49°
2026-05-08 01:07 34.85517 -116.64403 30927 ft 474 kts 48°
2026-05-08 01:08 34.89879 -116.58451 30913 ft 473 kts 46°
2026-05-08 01:08 34.94332 -116.52536 30898 ft 473 kts 46°
2026-05-08 01:09 34.98777 -116.46618 30879 ft 473 kts 46°
2026-05-08 01:09 35.03211 -116.40685 30865 ft 473 kts 46°
2026-05-08 01:10 35.07640 -116.34740 30864 ft 473 kts 46°
2026-05-08 01:10 35.12068 -116.28785 30868 ft 473 kts 46°
2026-05-08 01:11 35.16475 -116.22848 30867 ft 472 kts 46°
2026-05-08 01:11 35.20881 -116.16903 30866 ft 472 kts 47°
2026-05-08 01:12 35.25288 -116.10947 30882 ft 473 kts 46°
2026-05-08 01:12 35.29699 -116.04975 30887 ft 473 kts 46°
2026-05-08 01:13 35.34106 -115.98997 30902 ft 473 kts 47°
2026-05-08 01:13 35.38511 -115.93010 30908 ft 473 kts 47°
2026-05-08 01:14 35.42902 -115.87016 30927 ft 472 kts 47°
2026-05-08 01:14 35.47284 -115.81004 30928 ft 472 kts 47°
2026-05-08 01:15 35.51670 -115.75000 30944 ft 472 kts 47°
2026-05-08 01:15 35.56057 -115.68996 30943 ft 472 kts 47°
2026-05-08 01:16 35.60411 -115.63028 30959 ft 472 kts 47°
2026-05-08 01:16 35.64776 -115.57034 30946 ft 470 kts 47°
2026-05-08 01:17 35.69135 -115.51035 30952 ft 470 kts 47°
2026-05-08 01:17 35.73475 -115.45013 30953 ft 470 kts 47°
2026-05-08 01:18 35.77762 -115.39054 30945 ft 470 kts 47°
2026-05-08 01:18 35.82098 -115.33025 30946 ft 470 kts 47°
2026-05-08 01:19 35.86430 -115.26994 30952 ft 469 kts 47°
2026-05-08 01:19 35.90759 -115.20959 30950 ft 471 kts 47°
2026-05-08 01:20 35.95101 -115.14894 30953 ft 472 kts 47°
2026-05-08 01:20 35.99441 -115.08820 30953 ft 472 kts 47°
2026-05-08 01:21 36.03781 -115.02734 30911 ft 472 kts 47°
2026-05-08 01:21 36.08115 -114.96646 30896 ft 471 kts 47°
2026-05-08 01:22 36.12442 -114.90558 30840 ft 471 kts 47°
2026-05-08 01:22 36.16762 -114.84456 30831 ft 472 kts 48°
2026-05-08 01:23 36.20314 -114.77616 30829 ft 476 kts 64°
2026-05-08 01:23 36.22627 -114.69899 30807 ft 479 kts 69°
2026-05-08 01:24 36.24782 -114.62088 30796 ft 479 kts 68°
2026-05-08 01:24 36.27053 -114.54339 30794 ft 478 kts 67°
2026-05-08 01:25 36.29391 -114.46603 30796 ft 479 kts 66°
2026-05-08 01:25 36.31736 -114.38865 30798 ft 479 kts 66°
2026-05-08 01:26 36.34067 -114.31139 30807 ft 480 kts 66°
2026-05-08 01:26 36.36397 -114.23384 30815 ft 480 kts 66°
2026-05-08 01:27 36.38706 -114.15675 30814 ft 480 kts 66°
2026-05-08 01:27 36.41027 -114.07906 30828 ft 480 kts 66°
2026-05-08 01:28 36.43346 -114.00123 30851 ft 481 kts 66°
2026-05-08 01:28 36.45662 -113.92327 30851 ft 481 kts 66°
2026-05-08 01:29 36.47972 -113.84527 30874 ft 481 kts 67°
2026-05-08 01:29 36.50256 -113.76708 30873 ft 481 kts 67°
2026-05-08 01:30 36.52539 -113.68889 30888 ft 481 kts 67°
2026-05-08 01:30 36.54829 -113.61077 30903 ft 481 kts 67°
2026-05-08 01:31 36.57122 -113.53252 30903 ft 481 kts 67°
2026-05-08 01:31 36.59409 -113.45427 30910 ft 481 kts 67°
2026-05-08 01:32 36.61690 -113.37594 30912 ft 481 kts 67°
2026-05-08 01:32 36.63960 -113.29755 30915 ft 481 kts 67°
2026-05-08 01:33 36.66227 -113.21913 30931 ft 482 kts 67°
2026-05-08 01:33 36.68498 -113.14062 30961 ft 481 kts 67°
2026-05-08 01:34 36.70765 -113.06215 30988 ft 481 kts 67°
2026-05-08 01:34 36.73029 -112.98358 31002 ft 481 kts 67°
2026-05-08 01:35 36.75283 -112.90511 31004 ft 481 kts 67°
2026-05-08 01:35 36.77535 -112.82647 31000 ft 481 kts 67°
2026-05-08 01:36 36.79780 -112.74784 30987 ft 481 kts 67°
2026-05-08 01:36 36.82019 -112.66920 30965 ft 481 kts 67°
2026-05-08 01:37 36.84254 -112.59048 30940 ft 481 kts 67°
2026-05-08 01:37 36.86482 -112.51178 30946 ft 481 kts 67°
2026-05-08 01:38 36.88701 -112.43293 30962 ft 482 kts 68°
2026-05-08 01:38 36.90894 -112.35379 30955 ft 482 kts 68°
2026-05-08 01:39 36.93097 -112.27473 30957 ft 482 kts 68°
2026-05-08 01:39 36.95309 -112.19565 30958 ft 482 kts 68°
2026-05-08 01:40 36.97521 -112.11652 30958 ft 482 kts 68°
2026-05-08 01:40 36.99731 -112.03717 30930 ft 483 kts 68°
2026-05-08 01:41 37.01916 -111.95851 30936 ft 483 kts 68°
2026-05-08 01:41 37.04116 -111.87904 30914 ft 483 kts 68°
2026-05-08 01:42 37.06325 -111.79897 30904 ft 484 kts 68°
2026-05-08 01:42 37.08525 -111.71905 30906 ft 486 kts 68°
2026-05-08 01:43 37.10720 -111.63904 30899 ft 486 kts 68°
2026-05-08 01:43 37.12898 -111.55941 30962 ft 486 kts 68°
2026-05-08 01:44 37.15085 -111.47923 30956 ft 486 kts 68°
2026-05-08 01:44 37.17265 -111.39898 30951 ft 486 kts 68°
2026-05-08 01:45 37.19421 -111.31860 30932 ft 486 kts 68°
2026-05-08 01:45 37.21570 -111.23819 30911 ft 486 kts 68°
2026-05-08 01:46 37.23719 -111.15773 30899 ft 486 kts 68°
2026-05-08 01:46 37.25868 -111.07715 30905 ft 488 kts 68°
2026-05-08 01:47 37.28021 -110.99636 30910 ft 488 kts 68°
2026-05-08 01:47 37.30169 -110.91546 30906 ft 488 kts 68°
2026-05-08 01:48 37.33380 -110.79408 30909 ft 488 kts 68°
2026-05-08 01:48 37.35513 -110.71309 30903 ft 488 kts 68°
2026-05-08 01:49 37.37284 -110.64571 30904 ft 489 kts 68°
2026-05-08 01:49 37.39410 -110.56454 30910 ft 489 kts 68°
2026-05-08 01:50 37.41530 -110.48335 30908 ft 489 kts 68°
2026-05-08 01:50 37.43646 -110.40205 30921 ft 490 kts 68°
2026-05-08 01:51 37.45760 -110.32057 30933 ft 490 kts 68°
2026-05-08 01:51 37.47867 -110.23898 30937 ft 490 kts 68°
2026-05-08 01:52 37.49942 -110.15732 30953 ft 490 kts 68°
2026-05-08 01:52 37.52028 -110.07544 30954 ft 492 kts 68°
2026-05-08 01:53 37.54127 -109.99334 30963 ft 493 kts 68°
2026-05-08 01:53 37.56227 -109.91110 30970 ft 493 kts 68°
2026-05-08 01:54 37.58320 -109.82882 30966 ft 493 kts 68°
2026-05-08 01:54 37.60397 -109.74693 30979 ft 494 kts 69°
2026-05-08 01:55 37.62484 -109.66437 31073 ft 494 kts 69°
2026-05-08 01:55 37.64560 -109.58196 31097 ft 494 kts 69°
2026-05-08 01:56 37.66635 -109.49930 31100 ft 494 kts 69°
2026-05-08 01:56 37.68707 -109.41650 31092 ft 495 kts 69°
2026-05-08 01:57 37.70777 -109.33350 31068 ft 496 kts 69°
2026-05-08 01:57 37.72841 -109.25038 31043 ft 496 kts 69°
2026-05-08 01:58 37.74875 -109.16713 31022 ft 496 kts 69°
2026-05-08 01:58 37.76910 -109.08381 31008 ft 497 kts 69°
2026-05-08 01:59 37.78963 -109.00018 31009 ft 499 kts 69°
2026-05-08 01:59 37.81021 -108.91610 31006 ft 501 kts 70°
2026-05-08 02:00 37.82533 -108.82963 31012 ft 506 kts 76°
2026-05-08 02:00 37.83591 -108.74148 31016 ft 508 kts 77°
2026-05-08 02:01 37.84627 -108.65310 31021 ft 508 kts 77°
2026-05-08 02:01 37.85708 -108.56484 31034 ft 506 kts 77°
2026-05-08 02:02 37.86801 -108.47696 31036 ft 505 kts 77°
2026-05-08 02:02 37.87889 -108.38905 31060 ft 506 kts 77°
2026-05-08 02:03 37.88971 -108.30098 31090 ft 507 kts 77°
2026-05-08 02:03 37.90045 -108.21285 31146 ft 507 kts 77°
2026-05-08 02:04 37.91113 -108.12463 31205 ft 507 kts 77°
2026-05-08 02:04 37.92174 -108.03639 31255 ft 507 kts 77°
2026-05-08 02:05 37.93229 -107.94811 31264 ft 507 kts 78°
2026-05-08 02:05 37.94276 -107.85979 31266 ft 507 kts 78°
2026-05-08 02:06 37.95281 -107.77197 31101 ft 507 kts 78°
2026-05-08 02:06 37.96298 -107.68343 31130 ft 509 kts 78°
2026-05-08 02:07 37.97327 -107.59470 31143 ft 509 kts 78°
2026-05-08 02:07 37.98355 -107.50588 31138 ft 509 kts 78°
2026-05-08 02:08 37.99375 -107.41708 31163 ft 509 kts 78°
2026-05-08 02:08 38.00387 -107.32832 31164 ft 509 kts 78°
2026-05-08 02:09 38.01394 -107.23944 31165 ft 510 kts 78°
2026-05-08 02:09 38.02395 -107.15046 31159 ft 510 kts 78°
2026-05-08 02:10 38.03389 -107.06141 31154 ft 510 kts 78°
2026-05-08 02:10 38.04375 -106.97251 31162 ft 511 kts 78°
2026-05-08 02:11 38.05359 -106.88308 31142 ft 511 kts 78°
2026-05-08 02:11 38.06322 -106.79422 31145 ft 512 kts 78°
2026-05-08 02:12 38.07267 -106.70415 31140 ft 512 kts 78°
2026-05-08 02:12 38.08218 -106.61456 31128 ft 512 kts 78°
2026-05-08 02:13 38.09169 -106.52547 31125 ft 512 kts 78°
2026-05-08 02:13 38.10122 -106.43581 31108 ft 512 kts 78°
2026-05-08 02:14 38.11067 -106.34616 31120 ft 513 kts 78°
2026-05-08 02:14 38.12010 -106.25601 31092 ft 517 kts 78°
2026-05-08 02:15 38.12950 -106.16548 31075 ft 517 kts 78°
2026-05-08 02:15 38.13882 -106.07491 31075 ft 517 kts 78°
2026-05-08 02:16 38.14808 -105.98419 31056 ft 518 kts 78°
2026-05-08 02:16 38.15729 -105.89336 31010 ft 518 kts 79°
2026-05-08 02:17 38.16642 -105.80252 31009 ft 519 kts 79°
2026-05-08 02:17 38.17522 -105.71217 30967 ft 519 kts 79°
2026-05-08 02:18 38.18396 -105.62115 30938 ft 519 kts 79°
2026-05-08 02:18 38.19287 -105.52962 30931 ft 522 kts 79°
2026-05-08 02:19 38.20181 -105.43789 30884 ft 523 kts 79°
2026-05-08 02:19 38.21068 -105.34613 30840 ft 522 kts 79°
2026-05-08 02:20 38.21946 -105.25441 30842 ft 522 kts 79°
2026-05-08 02:20 38.22816 -105.16278 30842 ft 522 kts 80°
2026-05-08 02:21 38.23680 -105.07106 30845 ft 522 kts 80°
2026-05-08 02:21 38.24537 -104.97924 30890 ft 522 kts 80°
2026-05-08 02:22 38.25387 -104.88742 30915 ft 523 kts 80°
2026-05-08 02:22 38.26230 -104.79555 30929 ft 523 kts 80°
2026-05-08 02:23 38.27060 -104.70360 30952 ft 523 kts 81°
2026-05-08 02:23 38.27857 -104.61151 30972 ft 523 kts 81°
2026-05-08 02:24 38.28662 -104.51946 30970 ft 523 kts 80°
2026-05-08 02:24 38.29502 -104.42746 30972 ft 523 kts 79°
2026-05-08 02:25 38.30601 -104.33615 30960 ft 522 kts 77°
2026-05-08 02:25 38.31805 -104.24532 30943 ft 522 kts 77°
2026-05-08 02:26 38.32991 -104.15485 30931 ft 522 kts 77°
2026-05-08 02:26 38.34161 -104.06348 30914 ft 523 kts 77°
2026-05-08 02:27 38.35318 -103.97212 30908 ft 523 kts 78°
2026-05-08 02:27 38.36468 -103.88065 30908 ft 523 kts 78°
2026-05-08 02:28 38.37614 -103.78912 30915 ft 524 kts 78°
2026-05-08 02:28 38.38754 -103.69739 30909 ft 524 kts 78°
2026-05-08 02:29 38.39888 -103.60550 30915 ft 524 kts 78°
2026-05-08 02:29 38.41013 -103.51373 30911 ft 524 kts 78°
2026-05-08 02:30 38.42136 -103.42163 30914 ft 526 kts 78°
2026-05-08 02:30 38.43230 -103.32922 30907 ft 527 kts 79°
2026-05-08 02:31 38.44314 -103.23682 30900 ft 527 kts 79°
2026-05-08 02:31 38.45409 -103.14446 30903 ft 527 kts 79°
2026-05-08 02:32 38.46509 -103.05179 30900 ft 530 kts 79°
2026-05-08 02:32 38.47605 -102.95876 30899 ft 530 kts 79°
2026-05-08 02:33 38.48692 -102.86575 30900 ft 530 kts 79°
2026-05-08 02:33 38.49773 -102.77260 30899 ft 530 kts 79°
2026-05-08 02:34 38.50847 -102.67938 30902 ft 531 kts 79°
2026-05-08 02:34 38.51915 -102.58602 30901 ft 532 kts 79°
2026-05-08 02:35 38.52976 -102.49254 30898 ft 532 kts 79°
2026-05-08 02:35 38.54029 -102.39908 30906 ft 532 kts 79°
2026-05-08 02:36 38.54892 -102.32131 30903 ft 532 kts 79°
2026-05-08 02:36 38.55901 -102.22757 30902 ft 532 kts 79°
2026-05-08 02:37 38.56919 -102.13391 30907 ft 532 kts 79°
2026-05-08 02:37 38.57944 -102.04023 30922 ft 532 kts 79°
2026-05-08 02:38 38.58966 -101.94642 30903 ft 533 kts 79°
2026-05-08 02:38 38.59979 -101.85254 30906 ft 533 kts 79°
2026-05-08 02:39 38.60985 -101.75859 30905 ft 533 kts 79°
2026-05-08 02:39 38.61982 -101.66467 30911 ft 534 kts 80°
2026-05-08 02:40 38.62975 -101.57045 30901 ft 535 kts 80°
2026-05-08 02:40 38.63958 -101.47643 30900 ft 535 kts 80°
2026-05-08 02:41 38.64936 -101.38210 30897 ft 535 kts 80°
2026-05-08 02:41 38.65903 -101.28775 30921 ft 535 kts 80°
2026-05-08 02:42 38.66831 -101.19366 30907 ft 537 kts 80°
2026-05-08 02:42 38.67771 -101.09885 30887 ft 537 kts 80°
2026-05-08 02:43 38.68720 -101.00401 30897 ft 537 kts 80°
2026-05-08 02:43 38.69665 -100.90916 30890 ft 537 kts 80°
2026-05-08 02:44 38.70603 -100.81425 30885 ft 537 kts 80°
2026-05-08 02:44 38.71531 -100.71939 30891 ft 537 kts 80°
2026-05-08 02:45 38.72452 -100.62447 30891 ft 537 kts 80°
2026-05-08 02:45 38.73366 -100.52943 30887 ft 539 kts 81°
2026-05-08 02:46 38.74275 -100.43413 30878 ft 540 kts 81°
2026-05-08 02:46 38.75177 -100.33866 30874 ft 540 kts 81°
2026-05-08 02:47 38.76069 -100.24326 30873 ft 540 kts 81°
2026-05-08 02:47 38.76926 -100.14765 30876 ft 541 kts 81°
2026-05-08 02:48 38.77786 -100.05168 30870 ft 542 kts 81°
2026-05-08 02:48 38.78656 -99.95578 30867 ft 542 kts 81°
2026-05-08 02:49 38.79524 -99.85985 30869 ft 542 kts 81°
2026-05-08 02:49 38.80384 -99.76383 30873 ft 543 kts 81°
2026-05-08 02:50 38.81237 -99.66755 30879 ft 544 kts 81°
2026-05-08 02:50 38.82082 -99.57122 30878 ft 544 kts 81°
2026-05-08 02:51 38.82920 -99.47482 30879 ft 544 kts 81°
2026-05-08 02:51 38.83752 -99.37815 30883 ft 547 kts 81°
2026-05-08 02:52 38.84579 -99.28111 30888 ft 547 kts 81°
2026-05-08 02:52 38.85356 -99.18463 30887 ft 548 kts 83°
2026-05-08 02:53 38.85893 -99.08703 30913 ft 549 kts 84°
2026-05-08 02:53 38.86359 -98.98906 30871 ft 551 kts 84°
2026-05-08 02:54 38.86842 -98.89069 30869 ft 552 kts 84°
2026-05-08 02:54 38.87336 -98.79248 30869 ft 552 kts 84°
2026-05-08 02:55 38.88067 -98.64485 30869 ft 554 kts 84°
2026-05-08 02:56 38.88543 -98.54635 30870 ft 555 kts 84°
2026-05-08 02:56 38.89010 -98.44750 30870 ft 555 kts 84°
2026-05-08 02:57 38.89467 -98.34919 30861 ft 555 kts 84°
2026-05-08 02:57 38.89923 -98.24941 30867 ft 558 kts 85°
2026-05-08 02:58 38.90366 -98.15055 30864 ft 559 kts 85°
2026-05-08 02:58 38.90773 -98.05096 30868 ft 559 kts 85°
2026-05-08 02:59 38.91181 -97.95072 30876 ft 559 kts 85°
2026-05-08 02:59 38.91595 -97.85178 30873 ft 559 kts 85°
2026-05-08 03:00 38.92009 -97.75211 30872 ft 559 kts 85°
2026-05-08 03:00 38.92421 -97.65230 30876 ft 559 kts 84°
2026-05-08 03:01 38.93359 -97.55345 30887 ft 557 kts 78°
2026-05-08 03:01 38.94752 -97.45570 30860 ft 557 kts 77°
2026-05-08 03:02 38.96166 -97.35790 30871 ft 557 kts 77°
2026-05-08 03:02 38.97512 -97.25997 30863 ft 557 kts 78°
2026-05-08 03:03 38.98825 -97.16188 30871 ft 557 kts 78°
2026-05-08 03:03 39.00129 -97.06366 30878 ft 557 kts 78°
2026-05-08 03:04 39.01427 -96.96549 30881 ft 557 kts 78°
2026-05-08 03:04 39.02706 -96.86728 30893 ft 557 kts 78°
2026-05-08 03:05 39.03979 -96.76881 30890 ft 559 kts 78°
2026-05-08 03:05 39.05259 -96.67019 30892 ft 559 kts 78°
2026-05-08 03:06 39.06537 -96.57151 30894 ft 559 kts 78°
2026-05-08 03:06 39.07805 -96.47284 30889 ft 559 kts 79°
2026-05-08 03:07 39.09066 -96.37409 30892 ft 558 kts 79°
2026-05-08 03:07 39.10315 -96.27548 30886 ft 558 kts 79°
2026-05-08 03:08 39.11555 -96.17688 30887 ft 558 kts 79°
2026-05-08 03:08 39.12787 -96.07828 30900 ft 558 kts 79°
2026-05-08 03:09 39.14016 -95.97928 30898 ft 560 kts 79°
2026-05-08 03:09 39.15235 -95.88012 30900 ft 560 kts 79°
2026-05-08 03:10 39.16416 -95.78087 30905 ft 561 kts 80°
2026-05-08 03:10 39.17592 -95.68212 30915 ft 561 kts 79°
2026-05-08 03:11 39.18780 -95.58321 30916 ft 560 kts 79°
2026-05-08 03:11 39.19969 -95.48390 30910 ft 560 kts 79°
2026-05-08 03:12 39.21148 -95.38472 30911 ft 560 kts 80°
2026-05-08 03:12 39.22319 -95.28528 30918 ft 561 kts 80°
2026-05-08 03:13 39.23483 -95.18572 30916 ft 561 kts 80°
2026-05-08 03:13 39.24633 -95.08648 30915 ft 556 kts 79°
2026-05-08 03:14 39.25754 -94.98912 30911 ft 555 kts 80°
2026-05-08 03:14 39.26882 -94.89043 30916 ft 557 kts 80°
2026-05-08 03:15 39.27997 -94.79141 30916 ft 558 kts 80°
2026-05-08 03:15 39.29265 -94.69274 30914 ft 556 kts 76°
2026-05-08 03:16 39.30913 -94.59586 30920 ft 556 kts 75°
2026-05-08 03:16 39.32647 -94.49846 30931 ft 557 kts 75°
2026-05-08 03:17 39.34343 -94.40076 30935 ft 557 kts 75°
2026-05-08 03:17 39.36005 -94.30293 30935 ft 558 kts 75°
2026-05-08 03:18 39.37656 -94.20501 30920 ft 558 kts 75°
2026-05-08 03:18 39.39305 -94.10683 30931 ft 560 kts 75°
2026-05-08 03:19 39.40952 -94.00829 30926 ft 561 kts 75°
2026-05-08 03:19 39.42590 -93.90973 30927 ft 561 kts 75°
2026-05-08 03:20 39.44220 -93.81110 30934 ft 561 kts 76°
2026-05-08 03:20 39.45844 -93.71226 30930 ft 563 kts 76°
2026-05-08 03:21 39.47434 -93.61308 30930 ft 563 kts 76°
2026-05-08 03:21 39.49021 -93.51388 30934 ft 563 kts 76°
2026-05-08 03:22 39.50619 -93.41470 30940 ft 563 kts 76°
2026-05-08 03:22 39.52214 -93.31552 30941 ft 563 kts 76°
2026-05-08 03:23 39.53533 -93.23306 30975 ft 563 kts 75°
2026-05-08 03:23 39.55104 -93.13422 30943 ft 559 kts 76°
2026-05-08 03:24 39.56662 -93.03560 30959 ft 559 kts 75°
2026-05-08 03:24 39.58218 -92.93665 30950 ft 560 kts 76°
2026-05-08 03:25 39.59764 -92.83765 30955 ft 560 kts 76°
2026-05-08 03:25 39.61303 -92.73853 30962 ft 561 kts 76°
2026-05-08 03:26 39.62825 -92.63969 30975 ft 562 kts 76°
2026-05-08 03:26 39.64320 -92.54004 30964 ft 563 kts 76°
2026-05-08 03:27 39.65819 -92.44036 30963 ft 563 kts 76°
2026-05-08 03:27 39.67327 -92.34072 30962 ft 563 kts 76°
2026-05-08 03:28 39.68833 -92.24091 30964 ft 564 kts 76°
2026-05-08 03:28 39.70320 -92.14164 30955 ft 564 kts 76°
2026-05-08 03:29 39.71809 -92.04163 30949 ft 564 kts 76°
2026-05-08 03:29 39.73288 -91.94157 30949 ft 564 kts 76°
2026-05-08 03:30 39.75498 -91.79101 30958 ft 566 kts 76°
2026-05-08 03:30 39.76963 -91.69034 31077 ft 567 kts 76°
2026-05-08 03:31 39.78420 -91.58950 31472 ft 569 kts 77°
2026-05-08 03:31 39.79844 -91.48810 31909 ft 570 kts 77°
2026-05-08 03:32 39.80550 -91.43767 32307 ft 565 kts 77°
2026-05-08 03:32 39.81255 -91.38751 32689 ft 561 kts 77°
2026-05-08 03:32 39.81960 -91.33768 32927 ft 561 kts 77°
2026-05-08 03:33 39.83378 -91.23753 32958 ft 565 kts 77°
2026-05-08 03:33 39.84797 -91.13674 32971 ft 568 kts 77°
2026-05-08 03:34 39.86213 -91.03530 32958 ft 570 kts 77°
2026-05-08 03:34 39.87621 -90.93370 32959 ft 570 kts 77°
2026-05-08 03:35 39.89004 -90.83318 32967 ft 571 kts 77°
2026-05-08 03:35 39.90368 -90.73344 32974 ft 570 kts 77°
2026-05-08 03:36 39.91731 -90.63308 32958 ft 569 kts 77°
2026-05-08 03:36 39.93085 -90.53274 32962 ft 569 kts 77°
2026-05-08 03:37 39.94400 -90.43231 32971 ft 569 kts 78°
2026-05-08 03:37 39.95713 -90.33174 32978 ft 571 kts 77°
2026-05-08 03:38 39.97062 -90.22936 32968 ft 573 kts 77°
2026-05-08 03:38 39.98406 -90.12703 32975 ft 573 kts 77°
2026-05-08 03:39 39.99746 -90.02464 32972 ft 573 kts 77°
2026-05-08 03:39 40.01458 -89.92435 32964 ft 567 kts 72°
2026-05-08 03:40 40.03529 -89.82453 32982 ft 564 kts 71°
2026-05-08 03:40 40.05548 -89.72790 32960 ft 552 kts 71°
2026-05-08 03:41 40.07515 -89.63133 32963 ft 552 kts 72°
2026-05-08 03:41 40.09460 -89.53433 32984 ft 552 kts 72°
2026-05-08 03:42 40.11392 -89.43732 32991 ft 552 kts 72°
2026-05-08 03:42 40.13321 -89.34018 32980 ft 552 kts 72°
2026-05-08 03:43 40.15241 -89.24306 32979 ft 552 kts 72°
2026-05-08 03:43 40.17153 -89.14587 32980 ft 552 kts 72°
2026-05-08 03:44 40.19058 -89.04861 32980 ft 552 kts 72°
2026-05-08 03:44 40.20951 -88.95122 32983 ft 552 kts 73°
2026-05-08 03:45 40.22806 -88.85369 33001 ft 552 kts 73°
2026-05-08 03:45 40.24663 -88.75641 32987 ft 550 kts 73°
2026-05-08 03:46 40.26511 -88.65998 32985 ft 544 kts 73°
2026-05-08 03:46 40.28348 -88.56395 32985 ft 543 kts 73°
2026-05-08 03:47 40.30176 -88.46793 33006 ft 543 kts 73°
2026-05-08 03:47 40.32002 -88.37148 32988 ft 546 kts 73°
2026-05-08 03:48 40.33819 -88.27493 32989 ft 546 kts 73°
2026-05-08 03:48 40.35629 -88.17831 32990 ft 546 kts 73°
2026-05-08 03:49 40.37431 -88.08159 33000 ft 546 kts 73°
2026-05-08 03:49 40.39232 -87.98451 32994 ft 549 kts 73°
2026-05-08 03:50 40.41023 -87.88713 32982 ft 549 kts 73°
2026-05-08 03:50 40.42777 -87.78958 32987 ft 549 kts 73°
2026-05-08 03:51 40.44540 -87.69206 33002 ft 549 kts 73°
2026-05-08 03:51 40.46319 -87.59413 32999 ft 552 kts 73°
2026-05-08 03:52 40.48087 -87.49647 32989 ft 553 kts 73°
2026-05-08 03:52 40.49855 -87.39812 32988 ft 553 kts 73°
2026-05-08 03:53 40.51616 -87.29969 32996 ft 554 kts 73°
2026-05-08 03:53 40.53377 -87.20074 32986 ft 556 kts 73°
2026-05-08 03:54 40.55130 -87.10165 32994 ft 556 kts 73°
2026-05-08 03:54 40.56903 -87.00266 32996 ft 556 kts 72°
2026-05-08 03:55 40.58724 -86.90370 32990 ft 557 kts 72°
2026-05-08 03:55 40.60563 -86.80446 32988 ft 559 kts 72°
2026-05-08 03:56 40.62389 -86.70533 32988 ft 559 kts 72°
2026-05-08 03:56 40.64208 -86.60581 32990 ft 559 kts 72°
2026-05-08 03:57 40.66021 -86.50613 33003 ft 561 kts 72°
2026-05-08 03:57 40.67835 -86.40583 32999 ft 563 kts 72°
2026-05-08 03:58 40.69618 -86.30668 32999 ft 563 kts 72°
2026-05-08 03:58 40.71404 -86.20686 32990 ft 563 kts 72°
2026-05-08 03:59 40.73196 -86.10622 32994 ft 566 kts 73°
2026-05-08 03:59 40.74984 -86.00492 32991 ft 567 kts 73°
2026-05-08 04:00 40.76733 -85.90343 32992 ft 567 kts 73°
2026-05-08 04:00 40.78490 -85.80192 32996 ft 567 kts 73°
2026-05-08 04:01 40.80255 -85.70044 32997 ft 567 kts 73°
2026-05-08 04:01 40.82015 -85.59891 32999 ft 567 kts 73°
2026-05-08 04:02 40.83767 -85.49724 33007 ft 569 kts 73°
2026-05-08 04:02 40.85516 -85.39513 33004 ft 571 kts 73°
2026-05-08 04:03 40.87262 -85.29256 32990 ft 573 kts 73°
2026-05-08 04:03 40.89868 -85.13828 32988 ft 573 kts 73°
2026-05-08 04:04 40.91594 -85.03533 33008 ft 574 kts 73°
2026-05-08 04:04 40.93312 -84.93204 32992 ft 576 kts 73°
2026-05-08 04:05 40.94995 -84.82831 32998 ft 577 kts 74°
2026-05-08 04:05 40.96684 -84.72456 32998 ft 577 kts 73°
2026-05-08 04:06 40.98382 -84.62085 33001 ft 578 kts 73°
2026-05-08 04:06 41.00081 -84.51670 32999 ft 579 kts 74°
2026-05-08 04:07 41.01774 -84.41217 33002 ft 581 kts 73°
2026-05-08 04:07 41.03457 -84.30753 33004 ft 581 kts 73°
2026-05-08 04:08 41.05136 -84.20248 33018 ft 583 kts 73°
2026-05-08 04:08 41.06806 -84.09732 33025 ft 583 kts 74°
2026-05-08 04:09 41.08458 -83.99267 33026 ft 584 kts 74°
2026-05-08 04:09 41.10110 -83.88736 33035 ft 584 kts 74°
2026-05-08 04:10 41.11726 -83.78168 32990 ft 585 kts 75°
2026-05-08 04:10 41.13070 -83.69333 32990 ft 585 kts 74°
2026-05-08 04:11 41.14693 -83.58750 32993 ft 585 kts 74°
2026-05-08 04:11 41.16314 -83.48172 32994 ft 586 kts 75°
2026-05-08 04:12 41.17914 -83.37659 33012 ft 583 kts 74°
2026-05-08 04:12 41.19507 -83.27117 33012 ft 583 kts 74°
2026-05-08 04:13 41.21091 -83.16571 33012 ft 583 kts 75°
2026-05-08 04:13 41.22665 -83.06017 33013 ft 582 kts 75°
2026-05-08 04:14 41.24230 -82.95451 33012 ft 582 kts 75°
2026-05-08 04:14 41.25782 -82.84898 33014 ft 582 kts 75°
2026-05-08 04:15 41.27314 -82.74318 33015 ft 583 kts 76°
2026-05-08 04:15 41.28823 -82.63670 33008 ft 582 kts 76°
2026-05-08 04:16 41.30324 -82.53166 33007 ft 582 kts 76°
2026-05-08 04:16 41.31842 -82.42577 33029 ft 582 kts 76°
2026-05-08 04:17 41.33346 -82.32018 33004 ft 581 kts 77°
2026-05-08 04:17 41.34856 -82.21450 32998 ft 581 kts 75°
2026-05-08 04:18 41.37185 -82.11230 32998 ft 575 kts 65°
2026-05-08 04:18 41.40146 -82.01350 32975 ft 574 kts 63°
2026-05-08 04:19 41.43124 -81.91474 32971 ft 574 kts 64°
2026-05-08 04:19 41.46002 -81.81542 32971 ft 575 kts 65°
2026-05-08 04:20 41.48835 -81.71574 33007 ft 573 kts 65°
2026-05-08 04:20 41.51632 -81.61685 32979 ft 569 kts 65°
2026-05-08 04:21 41.54431 -81.51789 32996 ft 571 kts 65°
2026-05-08 04:21 41.57229 -81.41866 32999 ft 571 kts 65°
2026-05-08 04:22 41.60021 -81.31922 32979 ft 571 kts 65°
2026-05-08 04:22 41.62781 -81.22050 32985 ft 573 kts 65°
2026-05-08 04:23 41.65547 -81.12060 33003 ft 572 kts 66°
2026-05-08 04:23 41.68270 -81.02106 32979 ft 568 kts 66°
2026-05-08 04:24 41.70999 -80.92183 32988 ft 568 kts 66°
2026-05-08 04:24 41.73738 -80.82239 32974 ft 571 kts 66°
2026-05-08 04:25 41.76457 -80.72330 32971 ft 571 kts 66°
2026-05-08 04:25 41.79176 -80.62371 32981 ft 571 kts 66°
2026-05-08 04:26 41.81884 -80.52369 32998 ft 569 kts 66°
2026-05-08 04:26 41.84578 -80.42397 32979 ft 569 kts 66°
2026-05-08 04:27 41.87280 -80.32408 32979 ft 569 kts 66°
2026-05-08 04:27 41.89976 -80.22417 32980 ft 569 kts 66°
2026-05-08 04:28 41.92663 -80.12413 32981 ft 570 kts 66°
2026-05-08 04:28 41.95351 -80.02368 32985 ft 571 kts 66°
2026-05-08 04:29 41.98023 -79.92330 32996 ft 566 kts 67°
2026-05-08 04:29 42.00650 -79.82416 32988 ft 562 kts 67°
2026-05-08 04:30 42.03271 -79.72504 32993 ft 564 kts 67°
2026-05-08 04:30 42.05890 -79.62553 32988 ft 565 kts 67°
2026-05-08 04:31 42.08494 -79.52585 32978 ft 564 kts 68°
2026-05-08 04:31 42.11062 -79.42594 32979 ft 565 kts 68°
2026-05-08 04:32 42.13646 -79.32584 32968 ft 565 kts 68°
2026-05-08 04:32 42.16211 -79.22662 32962 ft 564 kts 68°
2026-05-08 04:33 42.18809 -79.12609 32985 ft 564 kts 68°
2026-05-08 04:33 42.21443 -79.02635 32982 ft 565 kts 67°
2026-05-08 04:34 42.24103 -78.92719 32979 ft 567 kts 67°
2026-05-08 04:34 42.26798 -78.82644 32979 ft 567 kts 67°
2026-05-08 04:35 42.29441 -78.72699 32977 ft 567 kts 67°
2026-05-08 04:35 42.32090 -78.62678 32979 ft 566 kts 67°
2026-05-08 04:36 42.34727 -78.52664 32980 ft 566 kts 67°
2026-05-08 04:36 42.37356 -78.42642 32980 ft 566 kts 67°
2026-05-08 04:37 42.39977 -78.32610 32979 ft 566 kts 67°
2026-05-08 04:37 42.42585 -78.22580 32988 ft 563 kts 68°
2026-05-08 04:38 42.45168 -78.12603 32993 ft 560 kts 68°
2026-05-08 04:38 42.47722 -78.02632 32984 ft 561 kts 68°
2026-05-08 04:39 42.50253 -77.92639 32980 ft 561 kts 68°
2026-05-08 04:39 42.52802 -77.82628 32991 ft 562 kts 68°
2026-05-08 04:40 42.55353 -77.72617 32962 ft 562 kts 68°
2026-05-08 04:40 42.57887 -77.62633 32969 ft 559 kts 68°
2026-05-08 04:41 42.60406 -77.52657 32961 ft 560 kts 68°
2026-05-08 04:41 42.62922 -77.42655 32967 ft 559 kts 68°
2026-05-08 04:42 42.65429 -77.32643 32959 ft 560 kts 68°
2026-05-08 04:42 42.67912 -77.22683 32942 ft 559 kts 69°
2026-05-08 04:43 42.70405 -77.12639 32982 ft 561 kts 69°
2026-05-08 04:43 42.72877 -77.02634 32947 ft 557 kts 69°
2026-05-08 04:44 42.75305 -76.92638 32945 ft 556 kts 69°
2026-05-08 04:44 42.77729 -76.82630 32939 ft 557 kts 69°
2026-05-08 04:45 42.80170 -76.72600 32947 ft 559 kts 69°
2026-05-08 04:45 42.82612 -76.62555 32943 ft 559 kts 69°
2026-05-08 04:46 42.85045 -76.52499 32952 ft 557 kts 70°
2026-05-08 04:46 42.87454 -76.42470 32940 ft 557 kts 71°
2026-05-08 04:47 42.89437 -76.32246 32932 ft 558 kts 76°
2026-05-08 04:47 42.91081 -76.21887 32932 ft 558 kts 77°
2026-05-08 04:48 42.92709 -76.11529 32926 ft 558 kts 77°
2026-05-08 04:48 42.94377 -76.01184 32927 ft 558 kts 76°
2026-05-08 04:49 42.96054 -75.90846 32952 ft 558 kts 77°
2026-05-08 04:49 42.97715 -75.80539 32920 ft 555 kts 77°
2026-05-08 04:50 42.99360 -75.70243 32921 ft 556 kts 77°
2026-05-08 04:50 43.00990 -75.59980 32927 ft 555 kts 77°
2026-05-08 04:51 43.02619 -75.49658 32931 ft 556 kts 77°
2026-05-08 04:51 43.04239 -75.39326 32918 ft 555 kts 78°
2026-05-08 04:52 43.06341 -75.29169 32927 ft 555 kts 70°
2026-05-08 04:52 43.09024 -75.19283 32937 ft 552 kts 68°
2026-05-08 04:53 43.11756 -75.09466 32929 ft 552 kts 68°
2026-05-08 04:53 43.14422 -74.99597 32919 ft 553 kts 69°
2026-05-08 04:54 43.17048 -74.89695 32924 ft 553 kts 69°
2026-05-08 04:54 43.19661 -74.79782 32925 ft 553 kts 69°
2026-05-08 04:55 43.22269 -74.69863 32927 ft 552 kts 70°
2026-05-08 04:55 43.24418 -74.61665 32926 ft 552 kts 70°
2026-05-08 04:56 43.27005 -74.51764 32926 ft 551 kts 70°
2026-05-08 04:56 43.29582 -74.41857 32922 ft 551 kts 70°
2026-05-08 04:57 43.32151 -74.31936 32912 ft 552 kts 70°
2026-05-08 04:57 43.34691 -74.21972 32929 ft 551 kts 71°
2026-05-08 04:58 43.37213 -74.12032 32907 ft 551 kts 71°
2026-05-08 04:58 43.39745 -74.02101 32897 ft 551 kts 71°
2026-05-08 04:59 43.42283 -73.92144 32897 ft 553 kts 71°
2026-05-08 04:59 43.44821 -73.82140 32899 ft 554 kts 71°
2026-05-08 05:00 43.47347 -73.72138 32902 ft 551 kts 71°
2026-05-08 05:00 43.49853 -73.62174 32886 ft 551 kts 72°
2026-05-08 05:01 43.52359 -73.52157 32893 ft 554 kts 72°
2026-05-08 05:01 43.54863 -73.42114 32892 ft 554 kts 72°
2026-05-08 05:02 43.57357 -73.32063 32883 ft 554 kts 72°
2026-05-08 05:02 43.59843 -73.21999 32874 ft 556 kts 73°
2026-05-08 05:03 43.62294 -73.11882 32875 ft 556 kts 73°
2026-05-08 05:03 43.64731 -73.01823 32876 ft 556 kts 73°
2026-05-08 05:04 43.67212 -72.91632 32861 ft 557 kts 73°
2026-05-08 05:04 43.69670 -72.81512 32900 ft 561 kts 73°
2026-05-08 05:05 43.72133 -72.71326 32878 ft 558 kts 73°
2026-05-08 05:05 43.74584 -72.61142 32871 ft 558 kts 73°
2026-05-08 05:06 43.77027 -72.50938 32852 ft 558 kts 73°
2026-05-08 05:06 43.79466 -72.40704 32864 ft 561 kts 74°
2026-05-08 05:07 43.81905 -72.30428 32874 ft 561 kts 74°
2026-05-08 05:07 43.84330 -72.20164 32858 ft 561 kts 74°
2026-05-08 05:08 43.86737 -72.09887 32862 ft 561 kts 74°
2026-05-08 05:08 43.89110 -71.99570 32855 ft 564 kts 75°
2026-05-08 05:09 43.91508 -71.89190 32858 ft 566 kts 75°
2026-05-08 05:09 43.93914 -71.78811 32853 ft 564 kts 75°
2026-05-08 05:10 43.97499 -71.63276 32874 ft 563 kts 75°
2026-05-08 05:11 43.99873 -71.52908 32863 ft 568 kts 75°
2026-05-08 05:11 44.02261 -71.42434 32863 ft 569 kts 75°
2026-05-08 05:12 44.04643 -71.31939 32865 ft 568 kts 76°
2026-05-08 05:12 44.06996 -71.21525 32862 ft 567 kts 76°
2026-05-08 05:13 44.09350 -71.11048 32845 ft 569 kts 76°
2026-05-08 05:13 44.11702 -71.00492 32849 ft 572 kts 76°
2026-05-08 05:14 44.14017 -70.89904 32853 ft 572 kts 76°
2026-05-08 05:14 44.16342 -70.79317 32850 ft 571 kts 76°
2026-05-08 05:15 44.18669 -70.68745 32850 ft 571 kts 76°
2026-05-08 05:15 44.20990 -70.58172 32843 ft 571 kts 76°
2026-05-08 05:16 44.23301 -70.47582 32844 ft 571 kts 76°
2026-05-08 05:16 44.25598 -70.36996 32846 ft 570 kts 77°
2026-05-08 05:17 44.27882 -70.26422 32844 ft 569 kts 77°
2026-05-08 05:17 44.30157 -70.15832 32833 ft 571 kts 77°
2026-05-08 05:18 44.32428 -70.05203 32831 ft 572 kts 77°
2026-05-08 05:18 44.34690 -69.94565 32836 ft 572 kts 77°
2026-05-08 05:19 44.36919 -69.83895 32845 ft 571 kts 78°
2026-05-08 05:19 44.39126 -69.73249 32809 ft 570 kts 78°
2026-05-08 05:20 44.41351 -69.62578 32806 ft 571 kts 78°
2026-05-08 05:20 44.43578 -69.51894 32806 ft 571 kts 78°
2026-05-08 05:21 44.45792 -69.41219 32804 ft 571 kts 78°
2026-05-08 05:21 44.47995 -69.30531 32810 ft 570 kts 78°
2026-05-08 05:22 44.50185 -69.19852 32794 ft 571 kts 78°
2026-05-08 05:22 44.52352 -69.09220 32790 ft 571 kts 78°
2026-05-08 05:23 44.54525 -68.98507 32796 ft 571 kts 78°
2026-05-08 05:23 44.56687 -68.87792 32796 ft 571 kts 79°
2026-05-08 05:24 44.58830 -68.77070 32778 ft 570 kts 79°
2026-05-08 05:24 44.60926 -68.66360 32788 ft 569 kts 79°
2026-05-08 05:25 44.63028 -68.55662 32789 ft 569 kts 79°
2026-05-08 05:25 44.65140 -68.44957 32786 ft 569 kts 79°
2026-05-08 05:26 44.67239 -68.34282 32795 ft 569 kts 79°
2026-05-08 05:26 44.69328 -68.23598 32781 ft 565 kts 80°
2026-05-08 05:27 44.71395 -68.12948 32778 ft 565 kts 80°
2026-05-08 05:27 44.73451 -68.02298 32774 ft 565 kts 80°
2026-05-08 05:28 44.75498 -67.91633 32773 ft 564 kts 80°
2026-05-08 05:28 44.77534 -67.80978 32761 ft 563 kts 81°
2026-05-08 05:29 44.79552 -67.70355 32776 ft 561 kts 81°
2026-05-08 05:29 44.81531 -67.59724 32770 ft 561 kts 81°
2026-05-08 05:30 44.83493 -67.49086 32773 ft 561 kts 81°
2026-05-08 05:30 44.85469 -67.38447 32763 ft 561 kts 81°
2026-05-08 05:31 44.87444 -67.27830 32776 ft 559 kts 81°
2026-05-08 05:31 44.90239 -67.17599 32757 ft 570 kts 64°
2026-05-08 05:32 44.94961 -67.08557 32760 ft 576 kts 48°
2026-05-08 05:32 45.00546 -67.00414 32756 ft 577 kts 48°
2026-05-08 05:33 45.05853 -66.91903 32752 ft 577 kts 52°
2026-05-08 05:33 45.10817 -66.83169 32753 ft 576 kts 54°
2026-05-08 05:34 45.15782 -66.74243 32745 ft 576 kts 54°
2026-05-08 05:34 45.20755 -66.65338 32689 ft 576 kts 54°
2026-05-08 05:35 45.25746 -66.56427 32739 ft 577 kts 54°
2026-05-08 05:35 45.30730 -66.47506 32735 ft 577 kts 54°
2026-05-08 05:36 45.35711 -66.38560 32736 ft 577 kts 54°
2026-05-08 05:36 45.40685 -66.29588 32733 ft 577 kts 55°
2026-05-08 05:37 45.45626 -66.20579 32729 ft 577 kts 55°
2026-05-08 05:37 45.50578 -66.11546 32725 ft 579 kts 55°
2026-05-08 05:38 45.55540 -66.02509 32727 ft 579 kts 55°
2026-05-08 05:38 45.60498 -65.93462 32724 ft 579 kts 55°
2026-05-08 05:39 45.65455 -65.84386 32717 ft 580 kts 55°
2026-05-08 05:39 45.70412 -65.75276 32711 ft 581 kts 56°
2026-05-08 05:40 45.75374 -65.66128 32713 ft 582 kts 56°
2026-05-08 05:40 45.80332 -65.56959 32710 ft 583 kts 56°
2026-05-08 05:41 45.84438 -65.49342 32711 ft 583 kts 56°
2026-05-08 05:41 45.90192 -65.38632 32710 ft 583 kts 56°
2026-05-08 05:42 45.94319 -65.30886 32713 ft 583 kts 56°
2026-05-08 05:42 45.99231 -65.21609 32703 ft 583 kts 56°
2026-05-08 05:43 46.04149 -65.12343 32696 ft 583 kts 56°
2026-05-08 05:43 46.09074 -65.03061 32695 ft 583 kts 56°
2026-05-08 05:44 46.13989 -64.93767 32696 ft 583 kts 56°
2026-05-08 05:44 46.18892 -64.84463 32693 ft 583 kts 57°
2026-05-08 05:45 46.23793 -64.75131 32692 ft 583 kts 57°
2026-05-08 05:45 46.28696 -64.65761 32698 ft 584 kts 57°
2026-05-08 05:46 46.33587 -64.56385 32692 ft 584 kts 57°
2026-05-08 05:46 46.38471 -64.46990 32683 ft 584 kts 57°
2026-05-08 05:47 46.42994 -64.38247 32682 ft 585 kts 57°
2026-05-08 05:47 46.47279 -64.29876 32677 ft 585 kts 57°
2026-05-08 05:48 46.52137 -64.20390 32678 ft 585 kts 57°
2026-05-08 05:48 46.57005 -64.10899 32613 ft 586 kts 58°
2026-05-08 05:49 46.61878 -64.01375 32678 ft 590 kts 58°
2026-05-08 05:49 46.66773 -63.91776 32683 ft 590 kts 58°
2026-05-08 05:50 46.71632 -63.82212 32686 ft 592 kts 58°
2026-05-08 05:50 46.76506 -63.72582 32686 ft 592 kts 58°
2026-05-08 05:51 46.80488 -63.64692 32691 ft 592 kts 58°
2026-05-08 05:51 46.85171 -63.55382 32691 ft 593 kts 59°
2026-05-08 05:52 46.90047 -63.45655 32694 ft 593 kts 59°
2026-05-08 05:52 46.94901 -63.35875 32689 ft 593 kts 59°
2026-05-08 05:53 46.99729 -63.26100 32704 ft 594 kts 59°
2026-05-08 05:53 47.04584 -63.16293 32661 ft 595 kts 60°
2026-05-08 05:54 47.09471 -63.06402 32684 ft 601 kts 60°
2026-05-08 05:54 47.14395 -62.96409 32703 ft 604 kts 61°
2026-05-08 05:55 47.19330 -62.86354 32692 ft 608 kts 61°
2026-05-08 05:55 47.24239 -62.76318 32691 ft 608 kts 61°
2026-05-08 05:56 47.29152 -62.66237 32711 ft 608 kts 61°
2026-05-08 05:56 47.34076 -62.56091 32696 ft 609 kts 61°
2026-05-08 05:57 47.38996 -62.45916 32700 ft 609 kts 62°
2026-05-08 05:57 47.43877 -62.35711 32700 ft 608 kts 62°
2026-05-08 05:58 47.48761 -62.25455 32630 ft 612 kts 63°
2026-05-08 05:58 47.53682 -62.15143 32700 ft 614 kts 63°
2026-05-08 05:59 47.58615 -62.04801 32705 ft 614 kts 63°
2026-05-08 05:59 47.63532 -61.94450 32699 ft 614 kts 63°
2026-05-08 06:00 47.68439 -61.84072 32698 ft 614 kts 63°
2026-05-08 06:00 47.73332 -61.73682 32703 ft 614 kts 63°
2026-05-08 06:01 47.78219 -61.63264 32699 ft 615 kts 63°
2026-05-08 06:01 47.83100 -61.52824 32696 ft 614 kts 63°
2026-05-08 06:02 47.87970 -61.42361 32695 ft 614 kts 64°
2026-05-08 06:02 47.92789 -61.31875 32694 ft 613 kts 64°
2026-05-08 06:03 47.97579 -61.21457 32684 ft 605 kts 63°
2026-05-08 06:03 48.02332 -61.11126 32695 ft 603 kts 63°
2026-05-08 06:04 48.07073 -61.00785 32704 ft 603 kts 63°
2026-05-08 06:04 48.11810 -60.90415 32701 ft 603 kts 63°
2026-05-08 06:05 48.16535 -60.80033 32698 ft 603 kts 64°
2026-05-08 06:05 48.21253 -60.69627 32694 ft 603 kts 63°
2026-05-08 06:06 48.25958 -60.59209 32697 ft 603 kts 64°
2026-05-08 06:06 48.30653 -60.48772 32694 ft 603 kts 64°
2026-05-08 06:07 48.35336 -60.38311 32706 ft 603 kts 64°
2026-05-08 06:07 48.39984 -60.27788 32641 ft 603 kts 63°
2026-05-08 06:08 48.44615 -60.17325 32693 ft 599 kts 63°
2026-05-08 06:08 48.49236 -60.06887 32695 ft 599 kts 63°
2026-05-08 06:09 48.53852 -59.96430 32691 ft 599 kts 63°
2026-05-08 06:09 48.58460 -59.85950 32692 ft 599 kts 63°
2026-05-08 06:10 48.63059 -59.75448 32691 ft 599 kts 64°
2026-05-08 06:10 48.67646 -59.64930 32688 ft 599 kts 63°
2026-05-08 06:11 48.72207 -59.54430 32689 ft 599 kts 64°
2026-05-08 06:11 48.76773 -59.43879 32692 ft 599 kts 64°
2026-05-08 06:12 48.81327 -59.33297 32691 ft 599 kts 64°
2026-05-08 06:12 48.85834 -59.22685 32662 ft 598 kts 64°
2026-05-08 06:13 48.90315 -59.12149 32687 ft 597 kts 64°
2026-05-08 06:13 48.94859 -59.01480 32693 ft 597 kts 64°
2026-05-08 06:14 48.99340 -58.90922 32689 ft 599 kts 64°
2026-05-08 06:14 49.03848 -58.80259 32687 ft 598 kts 64°
2026-05-08 06:15 49.08344 -58.69578 32684 ft 598 kts 64°
2026-05-08 06:15 49.12860 -58.58805 32684 ft 598 kts 64°
2026-05-08 06:16 49.17307 -58.48154 32682 ft 598 kts 64°
2026-05-08 06:16 49.21769 -58.37425 32680 ft 598 kts 64°
2026-05-08 06:17 49.28426 -58.21258 32568 ft 599 kts 65°
2026-05-08 06:17 49.32825 -58.10473 32656 ft 595 kts 64°
2026-05-08 06:18 49.37223 -57.99719 32668 ft 595 kts 63°
2026-05-08 06:18 49.41621 -57.88956 32654 ft 594 kts 64°
2026-05-08 06:19 49.46007 -57.78177 32651 ft 594 kts 64°
2026-05-08 06:19 49.50378 -57.67386 32645 ft 594 kts 64°
2026-05-08 06:20 49.54735 -57.56583 32635 ft 594 kts 64°
2026-05-08 06:20 49.59075 -57.45781 32639 ft 593 kts 64°
2026-05-08 06:21 49.63402 -57.34962 32638 ft 593 kts 64°
2026-05-08 06:21 49.67717 -57.24131 32631 ft 592 kts 64°
2026-05-08 06:22 49.71993 -57.13283 32643 ft 590 kts 64°
2026-05-08 06:22 49.76244 -57.02413 32624 ft 590 kts 64°
2026-05-08 06:23 49.80498 -56.91569 32628 ft 590 kts 64°
2026-05-08 06:23 49.84756 -56.80709 32632 ft 590 kts 64°
2026-05-08 06:24 49.88981 -56.69890 32631 ft 590 kts 64°
2026-05-08 06:24 49.93220 -56.58987 32631 ft 590 kts 64°
2026-05-08 06:25 49.96762 -56.49839 32631 ft 590 kts 64°
2026-05-08 06:25 50.01646 -56.37171 32633 ft 589 kts 64°
2026-05-08 06:26 50.05166 -56.28002 32634 ft 589 kts 64°
2026-05-08 06:26 50.09357 -56.17043 32637 ft 589 kts 64°
2026-05-08 06:27 50.13525 -56.06063 32632 ft 588 kts 64°
2026-05-08 06:27 50.17648 -55.95057 32599 ft 587 kts 64°
2026-05-08 06:28 50.21768 -55.84093 32642 ft 585 kts 64°
2026-05-08 06:28 50.25885 -55.73143 32644 ft 585 kts 64°
2026-05-08 06:29 50.29964 -55.62256 32647 ft 583 kts 63°
2026-05-08 06:29 50.34079 -55.51226 32647 ft 583 kts 64°
2026-05-08 06:30 50.38129 -55.40315 32651 ft 583 kts 64°
2026-05-08 06:30 50.42192 -55.29326 32650 ft 583 kts 63°
2026-05-08 06:31 50.46247 -55.18310 32657 ft 582 kts 63°
2026-05-08 06:31 50.50287 -55.07289 32659 ft 582 kts 64°
2026-05-08 06:32 50.54312 -54.96251 32669 ft 582 kts 64°
2026-05-08 06:32 50.58291 -54.85165 32665 ft 582 kts 64°
2026-05-08 06:33 50.62273 -54.74074 32669 ft 582 kts 64°
2026-05-08 06:33 50.66268 -54.62976 32669 ft 582 kts 64°
2026-05-08 06:34 50.70254 -54.51875 32674 ft 582 kts 63°
2026-05-08 06:34 50.74231 -54.40744 32675 ft 582 kts 64°
2026-05-08 06:35 50.78192 -54.29607 32680 ft 582 kts 64°
2026-05-08 06:35 50.82115 -54.18526 32684 ft 581 kts 64°
2026-05-08 06:36 50.86056 -54.07346 32691 ft 581 kts 63°
2026-05-08 06:36 50.89983 -53.96158 32696 ft 581 kts 64°
2026-05-08 06:37 50.93901 -53.84944 32705 ft 581 kts 64°
2026-05-08 06:37 50.97774 -53.73696 32702 ft 581 kts 64°
2026-05-08 06:38 51.01640 -53.62412 32702 ft 582 kts 63°
2026-05-08 06:38 51.05513 -53.51154 32715 ft 579 kts 63°
2026-05-08 06:39 51.09379 -53.39902 32722 ft 579 kts 63°
2026-05-08 06:39 51.13228 -53.28645 32718 ft 578 kts 62°
2026-05-08 06:40 51.17056 -53.17394 32724 ft 577 kts 63°
2026-05-08 06:40 51.20859 -53.06165 32739 ft 577 kts 63°
2026-05-08 06:41 51.24651 -52.94886 32738 ft 577 kts 64°
2026-05-08 06:41 51.28051 -52.83305 32743 ft 575 kts 68°
2026-05-08 06:42 51.31166 -52.71539 32753 ft 575 kts 69°
2026-05-08 06:42 51.34255 -52.59840 32756 ft 575 kts 69°
2026-05-08 06:43 51.37396 -52.48083 32766 ft 575 kts 68°
2026-05-08 06:43 51.40533 -52.36354 32762 ft 572 kts 68°
2026-05-08 06:44 51.43651 -52.24628 32782 ft 572 kts 68°
2026-05-08 06:44 51.46752 -52.12893 32785 ft 572 kts 68°
2026-05-08 06:45 51.49841 -52.01141 32785 ft 571 kts 69°
2026-05-08 06:45 51.52918 -51.89376 32794 ft 571 kts 68°
2026-05-08 06:46 51.55983 -51.77597 32807 ft 571 kts 69°
2026-05-08 06:46 51.59013 -51.65800 32807 ft 571 kts 69°
2026-05-08 06:47 51.62012 -51.53956 32813 ft 571 kts 69°
2026-05-08 06:47 51.65026 -51.42114 32789 ft 572 kts 68°
2026-05-08 06:48 51.68042 -51.30281 32827 ft 571 kts 68°
2026-05-08 06:48 51.71047 -51.18436 32837 ft 571 kts 68°
2026-05-08 06:49 51.74036 -51.06582 32839 ft 571 kts 68°
2026-05-08 06:49 51.77013 -50.94708 32859 ft 571 kts 68°
2026-05-08 06:50 51.79979 -50.82813 32861 ft 571 kts 68°
2026-05-08 06:50 51.82932 -50.70911 32861 ft 571 kts 68°
2026-05-08 06:51 51.85874 -50.58985 32867 ft 571 kts 69°
2026-05-08 06:51 51.88781 -50.47129 32892 ft 570 kts 69°
2026-05-08 06:52 51.91653 -50.35153 32861 ft 570 kts 69°
2026-05-08 06:52 51.94524 -50.23178 32887 ft 570 kts 68°
2026-05-08 06:53 51.97410 -50.11206 32915 ft 570 kts 68°
2026-05-08 06:53 52.00299 -49.99236 32911 ft 569 kts 67°
2026-05-08 06:54 52.03261 -49.87313 32922 ft 569 kts 66°
2026-05-08 06:54 52.06258 -49.75411 32922 ft 569 kts 66°
2026-05-08 06:55 52.09247 -49.63490 32949 ft 570 kts 67°
2026-05-08 06:55 52.12197 -49.51629 32955 ft 566 kts 67°
2026-05-08 06:56 52.15133 -49.39745 32952 ft 566 kts 67°
2026-05-08 06:56 52.18056 -49.27852 32960 ft 566 kts 67°
2026-05-08 06:57 52.20963 -49.15957 32956 ft 563 kts 66°
2026-05-08 06:57 52.23829 -49.04167 32979 ft 556 kts 66°
2026-05-08 06:58 52.26663 -48.92450 32987 ft 555 kts 66°
2026-05-08 06:58 52.29490 -48.80702 32991 ft 555 kts 66°
2026-05-08 06:59 52.32276 -48.68925 33007 ft 556 kts 67°
2026-05-08 06:59 52.35012 -48.57223 33018 ft 547 kts 67°
2026-05-08 07:00 52.37725 -48.45703 33018 ft 546 kts 67°
2026-05-08 07:00 52.40460 -48.34096 33022 ft 546 kts 67°
2026-05-08 07:01 52.43201 -48.22404 33029 ft 546 kts 67°
2026-05-08 07:01 52.45903 -48.10806 33039 ft 542 kts 68°
2026-05-08 07:02 52.48553 -47.99363 33049 ft 537 kts 69°
2026-05-08 07:02 52.51184 -47.87938 33034 ft 535 kts 69°
2026-05-08 07:03 52.53805 -47.76501 33061 ft 535 kts 69°
2026-05-08 07:03 52.56406 -47.65089 33062 ft 529 kts 70°
2026-05-08 07:04 52.58966 -47.53792 33061 ft 526 kts 70°
2026-05-08 07:04 52.61485 -47.42493 33072 ft 526 kts 70°
2026-05-08 07:05 52.63977 -47.31159 33082 ft 526 kts 70°
2026-05-08 07:05 52.66485 -47.19846 33084 ft 526 kts 70°
2026-05-08 07:06 52.68995 -47.08535 33088 ft 525 kts 70°
2026-05-08 07:06 52.71493 -46.97220 33094 ft 525 kts 70°
2026-05-08 07:07 52.73980 -46.85891 33100 ft 525 kts 70°
2026-05-08 07:07 52.76445 -46.74597 33103 ft 522 kts 70°
2026-05-08 07:08 52.78891 -46.63322 33109 ft 521 kts 70°
2026-05-08 07:08 52.81327 -46.52036 33118 ft 521 kts 70°
2026-05-08 07:09 52.83751 -46.40744 33131 ft 521 kts 70°
2026-05-08 07:09 52.86165 -46.29433 33128 ft 521 kts 70°
2026-05-08 07:10 52.88562 -46.18108 33134 ft 522 kts 70°
2026-05-08 07:10 52.90902 -46.06763 33138 ft 522 kts 70°
2026-05-08 07:11 52.93242 -45.95474 33143 ft 522 kts 70°